This is the latest recevied weather packets stored in our database for station/object HB9FRQ-10. If no packets are shown the sender has not sent any weather packets the latest 1 day(s).
| Time | Temp. | Humidity | Pressure | Rain* | Wind** | Luminosity | Snow |
|---|---|---|---|---|---|---|---|
| 1777738720 | 26.11° C | 34% | 1017.8 hPa | - | - | - | - |
| 1777737820 | 26.11° C | 36% | 1018 hPa | - | - | - | - |
| 1777736920 | 26.11° C | 35% | 1018.2 hPa | - | - | - | - |
| 1777736020 | 26.67° C | 32% | 1018.2 hPa | - | - | - | - |
| 1777735120 | 26.67° C | 35% | 1018.3 hPa | - | - | - | - |
| 1777734220 | 26.67° C | 31% | 1018.6 hPa | - | - | - | - |
| 1777733320 | 26.67° C | 33% | 1018.7 hPa | - | - | - | - |
| 1777732420 | 27.22° C | 31% | 1018.9 hPa | - | - | - | - |
| 1777731520 | 27.22° C | 31% | 1019.2 hPa | - | - | - | - |
| 1777730620 | 26.67° C | 31% | 1019.4 hPa | - | - | - | - |
| 1777729719 | 27.22° C | 31% | 1019.7 hPa | - | - | - | - |
| 1777728819 | 27.78° C | 32% | 1020 hPa | - | - | - | - |
| 1777727919 | 28.89° C | 30% | 1020.2 hPa | - | - | - | - |
| 1777727019 | 27.78° C | 31% | 1020.4 hPa | - | - | - | - |
| 1777726119 | 28.89° C | 33% | 1020.5 hPa | - | - | - | - |
| 1777725219 | 28.33° C | 36% | 1020.8 hPa | - | - | - | - |
| 1777724319 | 28.33° C | 35% | 1021 hPa | - | - | - | - |
| 1777723419 | 27.22° C | 34% | 1021.1 hPa | - | - | - | - |
| 1777722519 | 27.78° C | 35% | 1021.5 hPa | - | - | - | - |
| 1777721619 | 27.78° C | 32% | 1021.6 hPa | - | - | - | - |
| 1777720719 | 27.22° C | 36% | 1021.9 hPa | - | - | - | - |
| 1777719819 | 26.67° C | 36% | 1022.2 hPa | - | - | - | - |
| 1777718918 | 26.67° C | 35% | 1022.3 hPa | - | - | - | - |
| 1777718018 | 26.67° C | 35% | 1022.5 hPa | - | - | - | - |
| 1777717118 | 26.67° C | 35% | 1022.7 hPa | - | - | - | - |
* Rain since midnight (hover to see other rain measurements)
** Current wind speed in m/s (hover to see current wind gust speed)